| time (UTC) | temp F | wind direction | speed MPH | gust MPH | rain 1hr in | rain 24hr in | rain mn in | humidity % | barometer mb |
| 20260508011608 | 71 | 153 | 0.0 | 0.0 | 0.00 | 0.00 | 0.00 | 55 | 1002.4 |
| 20260508010106 | 72 | 154 | 0.0 | 0.0 | 0.00 | 0.00 | 0.00 | 49 | 1002.4 |
| 20260508004603 | 72 | 144 | 0.0 | 4.0 | 0.00 | 0.00 | 0.00 | 50 | 1002.4 |
| 20260508003110 | 72 | 187 | 0.0 | 5.0 | 0.00 | 0.00 | 0.00 | 51 | 1002.4 |
| 20260508001553 | 71 | 128 | 0.0 | 4.0 | 0.00 | 0.00 | 0.00 | 54 | 1002.4 |
| 20260508000052 | 70 | 148 | 0.0 | 2.0 | 0.00 | 0.00 | 0.00 | 54 | 1002.4 |
| 20260507234553 | 72 | 169 | 0.0 | 2.0 | 0.00 | 0.00 | 0.00 | 49 | 1002.4 |
| 20260507233053 | 71 | 184 | 1.0 | 5.0 | 0.00 | 0.00 | 0.00 | 52 | 1002.4 |
| 20260507231606 | 69 | 157 | 0.0 | 3.0 | 0.00 | 0.00 | 0.00 | 54 | 1002.4 |
| 20260507230053 | 72 | 91 | 0.0 | 3.0 | 0.00 | 0.00 | 0.00 | 50 | 1002.4 |
| 20260507224603 | 72 | 182 | 0.0 | 4.0 | 0.00 | 0.00 | 0.00 | 48 | 1002.4 |
| 20260507223051 | 69 | 98 | 0.0 | 1.0 | 0.00 | 0.00 | 0.00 | 52 | 1002.4 |
| 20260507221549 | 72 | 174 | 0.0 | 3.0 | 0.00 | 0.00 | 0.00 | 50 | 1002.4 |
| 20260507220049 | 73 | 112 | 0.0 | 2.0 | 0.00 | 0.00 | 0.00 | 49 | 1002.4 |
| 20260507214551 | 71 | 190 | 0.0 | 3.0 | 0.00 | 0.00 | 0.00 | 52 | 1002.4 |
| 20260507213052 | 69 | 159 | 0.0 | 6.0 | 0.00 | 0.00 | 0.00 | 56 | 1002.4 |
| 20260507211542 | 67 | 57 | 0.0 | 0.0 | 0.00 | 0.00 | 0.00 | 61 | 1002.4 |
| 20260507210045 | 67 | 30 | 0.0 | 3.0 | 0.00 | 0.00 | 0.00 | 60 | 1002.4 |
| 20260507204548 | 67 | 355 | 0.0 | 0.0 | 0.00 | 0.00 | 0.00 | 61 | 1002.4 |
| 20260507203036 | 68 | 173 | 0.0 | 2.0 | 0.00 | 0.00 | 0.00 | 56 | 1002.4 |
| 20260507201540 | 67 | 80 | 0.0 | 0.0 | 0.00 | 0.00 | 0.00 | 61 | 1002.4 |
| 20260507200038 | 66 | 119 | 0.0 | 2.0 | 0.00 | 0.00 | 0.00 | 59 | 1002.4 |
| 20260507194533 | 65 | 105 | 0.0 | 4.0 | 0.00 | 0.00 | 0.00 | 65 | 1002.4 |
| 20260507193033 | 64 | 41 | 0.0 | 7.0 | 0.00 | 0.00 | 0.00 | 69 | 1002.4 |
| 20260507191531 | 66 | 145 | 1.0 | 6.0 | 0.00 | 0.00 | 0.00 | 61 | 1002.4 |
| 20260507190036 | 62 | 96 | 0.0 | 0.0 | 0.00 | 0.00 | 0.00 | 68 | 1002.4 |
| 20260507184536 | 61 | 64 | 0.0 | 2.0 | 0.00 | 0.00 | 0.00 | 71 | 1002.4 |
| 20260507183027 | 61 | 88 | 0.0 | 0.0 | 0.00 | 0.00 | 0.00 | 73 | 1002.4 |
| 20260507181525 | 61 | 88 | 0.0 | 0.0 | 0.00 | 0.00 | 0.00 | 71 | 1002.4 |
| 20260507180026 | 62 | 149 | 1.0 | 5.0 | 0.00 | 0.00 | 0.00 | 71 | 1002.4 |
| 20260507174529 | 60 | 40 | 0.0 | 0.0 | 0.00 | 0.00 | 0.00 | 78 | 1002.4 |
| 20260507173024 | 59 | 118 | 0.0 | 0.0 | 0.00 | 0.00 | 0.00 | 79 | 1002.4 |
| 20260507171515 | 58 | 5 | 0.0 | 0.0 | 0.00 | 0.00 | 0.00 | 80 | 1002.4 |
| 20260507170015 | 57 | 5 | 0.0 | 0.0 | 0.00 | 0.00 | 0.00 | 82 | 1002.4 |
| 20260507164517 | 56 | 5 | 0.0 | 3.0 | 0.00 | 0.00 | 0.00 | 82 | 1002.4 |
| 20260507163010 | 56 | 5 | 0.0 | 3.0 | 0.00 | 0.00 | 0.00 | 82 | 1002.4 |
| 20260507161510 | 56 | 360 | 0.0 | 4.0 | 0.00 | 0.00 | 0.00 | 83 | 1002.4 |
| 20260507160007 | 56 | 342 | 0.0 | 2.0 | 0.00 | 0.00 | 0.00 | 82 | 1002.4 |
| 20260507154506 | 55 | 340 | 0.0 | 2.0 | 0.00 | 0.00 | 0.00 | 84 | 1002.4 |
| 20260507153006 | 55 | 324 | 0.0 | 0.0 | 0.00 | 0.00 | 0.00 | 86 | 1002.4 |
| 20260507151502 | 55 | 292 | 0.0 | 0.0 | 0.00 | 0.00 | 0.00 | 87 | 1002.4 |
| 20260507150105 | 54 | 292 | 0.0 | 0.0 | 0.00 | 0.00 | 0.00 | 88 | 1002.4 |
| 20260507144602 | 54 | 292 | 0.0 | 0.0 | 0.00 | 0.00 | 0.00 | 89 | 1002.4 |
| 20260507143102 | 54 | 292 | 0.0 | 0.0 | 0.00 | 0.00 | 0.00 | 89 | 1002.4 |
| 20260507141603 | 53 | 292 | 0.0 | 0.0 | 0.00 | 0.00 | 0.00 | 89 | 1002.4 |
| 20260507140118 | 53 | 292 | 0.0 | 0.0 | 0.00 | 0.00 | 0.00 | 90 | 1002.4 |
| 20260507134556 | 53 | 292 | 0.0 | 0.0 | 0.00 | 0.00 | 0.00 | 90 | 1002.4 |
| 20260507133057 | 53 | 292 | 0.0 | 0.0 | 0.00 | 0.00 | 0.00 | 90 | 1002.4 |
| 20260507131604 | 53 | 292 | 0.0 | 0.0 | 0.00 | 0.00 | 0.00 | 90 | 1002.4 |
| 20260507130108 | 53 | 292 | 0.0 | 0.0 | 0.00 | 0.00 | 0.00 | 90 | 1002.4 |
| 20260507124606 | 53 | 292 | 0.0 | 0.0 | 0.00 | 0.00 | 0.00 | 89 | 1002.4 |
| 20260507123059 | 53 | 292 | 0.0 | 0.0 | 0.00 | 0.00 | 0.00 | 89 | 1002.4 |
| 20260507121552 | 53 | 292 | 0.0 | 0.0 | 0.00 | 0.00 | 0.00 | 90 | 1002.4 |
| 20260507120051 | 53 | 292 | 0.0 | 0.0 | 0.00 | 0.00 | 0.00 | 91 | 1002.4 |
| 20260507114551 | 53 | 292 | 0.0 | 0.0 | 0.00 | 0.00 | 0.00 | 90 | 1002.4 |
| 20260507113050 | 53 | 292 | 0.0 | 0.0 | 0.00 | 0.00 | 0.00 | 89 | 1002.4 |
| 20260507111550 | 53 | 292 | 0.0 | 0.0 | 0.00 | 0.00 | 0.00 | 90 | 1002.4 |
| 20260507110049 | 53 | 292 | 0.0 | 0.0 | 0.00 | 0.00 | 0.00 | 90 | 1002.4 |
| 20260507104549 | 53 | 292 | 0.0 | 0.0 | 0.00 | 0.00 | 0.00 | 90 | 1002.4 |
| 20260507103047 | 53 | 292 | 0.0 | 0.0 | 0.00 | 0.00 | 0.00 | 91 | 1002.4 |
| 20260507101548 | 53 | 292 | 0.0 | 0.0 | 0.00 | 0.00 | 0.00 | 91 | 1002.4 |
| 20260507100046 | 53 | 292 | 0.0 | 0.0 | 0.00 | 0.00 | 0.00 | 91 | 1002.4 |
| 20260507094547 | 53 | 292 | 0.0 | 0.0 | 0.00 | 0.00 | 0.00 | 91 | 1002.4 |
| 20260507093045 | 53 | 292 | 0.0 | 0.0 | 0.00 | 0.00 | 0.00 | 90 | 1002.4 |
| 20260507091544 | 53 | 292 | 0.0 | 0.0 | 0.00 | 0.00 | 0.00 | 90 | 1002.4 |
| 20260507090044 | 53 | 292 | 0.0 | 0.0 | 0.00 | 0.00 | 0.00 | 90 | 1002.4 |
| 20260507084548 | 53 | 292 | 0.0 | 0.0 | 0.00 | 0.00 | 0.00 | 89 | 1002.4 |
| 20260507083048 | 53 | 292 | 0.0 | 0.0 | 0.00 | 0.00 | 0.00 | 89 | 1002.4 |
| 20260507081540 | 53 | 292 | 0.0 | 0.0 | 0.00 | 0.00 | 0.00 | 90 | 1002.4 |
| 20260507080050 | 53 | 292 | 0.0 | 0.0 | 0.00 | 0.00 | 0.00 | 89 | 1002.4 |
| 20260507074544 | 53 | 292 | 0.0 | 0.0 | 0.00 | 0.00 | 0.00 | 90 | 1002.4 |
| 20260507073038 | 53 | 292 | 0.0 | 0.0 | 0.00 | 0.00 | 0.00 | 87 | 1002.4 |
| 20260507071553 | 53 | 292 | 0.0 | 0.0 | 0.00 | 0.00 | 0.00 | 87 | 1002.4 |
| 20260507070036 | 52 | 292 | 0.0 | 0.0 | 0.00 | 0.00 | 0.00 | 87 | 1002.4 |
| 20260507064535 | 52 | 292 | 0.0 | 0.0 | 0.00 | 0.00 | 0.00 | 87 | 1002.4 |
| 20260507063038 | 51 | 292 | 0.0 | 0.0 | 0.00 | 0.00 | 0.00 | 88 | 1002.4 |
| 20260507061535 | 51 | 292 | 0.0 | 0.0 | 0.00 | 0.00 | 0.00 | 87 | 1002.4 |
| 20260507060033 | 52 | 292 | 0.0 | 0.0 | 0.00 | 0.00 | 0.00 | 87 | 1002.4 |
| 20260507054532 | 52 | 292 | 0.0 | 0.0 | 0.00 | 0.00 | 0.00 | 87 | 1002.4 |
| 20260507053032 | 52 | 292 | 0.0 | 0.0 | 0.00 | 0.00 | 0.00 | 86 | 1002.4 |
| 20260507051532 | 53 | 251 | 0.0 | 0.0 | 0.00 | 0.00 | 0.00 | 83 | 1002.4 |
| 20260507050032 | 54 | 251 | 0.0 | 0.0 | 0.00 | 0.00 | 0.00 | 82 | 1002.4 |
| 20260507044533 | 55 | 251 | 0.0 | 0.0 | 0.00 | 0.00 | 0.00 | 81 | 1002.4 |
| 20260507043036 | 55 | 251 | 0.0 | 0.0 | 0.00 | 0.00 | 0.00 | 81 | 1002.4 |
| 20260507041532 | 56 | 251 | 0.0 | 0.0 | 0.00 | 0.00 | 0.00 | 81 | 1002.4 |
| 20260507040029 | 56 | 251 | 0.0 | 5.0 | 0.00 | 0.00 | 0.00 | 80 | 1002.4 |
| 20260507034530 | 57 | 265 | 0.0 | 0.0 | 0.00 | 0.00 | 0.00 | 79 | 1002.4 |
| 20260507033029 | 57 | 265 | 0.0 | 0.0 | 0.00 | 0.00 | 0.00 | 78 | 1002.4 |
| 20260507031528 | 58 | 265 | 0.0 | 0.0 | 0.00 | 0.00 | 0.00 | 76 | 1002.4 |
| 20260507030031 | 59 | 265 | 0.0 | 0.0 | 0.00 | 0.00 | 0.00 | 74 | 1002.4 |
| 20260507024528 | 60 | 265 | 0.0 | 0.0 | 0.00 | 0.00 | 0.00 | 72 | 1002.4 |
| 20260507023029 | 61 | 265 | 0.0 | 3.0 | 0.00 | 0.00 | 0.00 | 72 | 1002.4 |
| 20260507021526 | 61 | 264 | 0.0 | 0.0 | 0.00 | 0.00 | 0.00 | 71 | 1002.4 |
| 20260507020028 | 62 | 273 | 0.0 | 1.0 | 0.00 | 0.00 | 0.00 | 70 | 1002.4 |
| 20260507014526 | 62 | 271 | 0.0 | 5.0 | 0.00 | 0.00 | 0.00 | 68 | 1002.4 |